This demonstration page uses our WeatherBlox Daily Observations layout. Learn more.

Left ArrowRight Arrow

40.92945, -100.16068

Hourly Observations for April 17, 2020

Temp ( °F °C ) Dew Point ( °F °C ) Humidity (%) Winds ( mph kmh ) Pressure ( in mb ) Visibility ( mi km ) Precip ( " mm )
12:15 am 00:15 Partly Cloudy 28 -2.5 26 -3.2 95 95 N 7 11 30.35 1028 10 16 0.00 0.00
12:35 am 00:35 Clear 25 -3.7 24 -4.2 96 96 NNW 7 11 30.38 1029 10 16 0.00 0.00
12:55 am 00:55 Clear 24 -4.3 23 -4.8 96 96 NNW 6 9 30.37 1028 10 16 0.00 0.00
1:15 am 01:15 Clear 24 -4.5 23 -4.8 98 98 NW 5 7 30.36 1028 7 11 0.00 0.00
1:55 am 01:55 Clear 23 -4.9 23 -5.1 99 99 WSW 8 13 30.39 1029 7 11 0.00 0.00
2:15 am 02:15 Clear 24 -4.5 23 -4.9 97 97 WNW 7 11 30.36 1028 10 16 0.00 0.00
2:35 am 02:35 Clear 24 -4.6 23 -5 97 97 WNW 9 15 30.35 1028 10 16 0.00 0.00
2:55 am 02:55 Mostly Cloudy 25 -3.7 25 -4.1 97 97 NW 8 13 30.34 1027 10 16 0.00 0.00
3:15 am 03:15 Cloudy 24 -4.2 23 -4.8 96 96 NW 7 11 30.34 1027 10 16 0.00 0.00
3:35 am 03:35 Partly Cloudy 22 -5.5 21 -6.1 96 96 NW 5 7 30.35 1028 10 16 0.00 0.00
3:55 am 03:55 Clear 20 -6.6 19 -7.1 96 96 NW 7 11 30.37 1028 10 16 0.00 0.00
4:15 am 04:15 Clear 23 -5.2 22 -5.7 96 96 WNW 9 15 30.35 1028 10 16 0.00 0.00
4:35 am 04:35 Clear 23 -5 22 -5.6 96 96 WNW 8 13 30.35 1028 10 16 0.00 0.00
4:55 am 04:55 Clear 22 -5.5 21 -6.1 96 96 WNW 7 11 30.35 1028 10 16 0.00 0.00
5:15 am 05:15 Clear 22 -5.3 21 -6.2 93 93 WNW 9 15 30.34 1027 10 16 0.00 0.00
5:35 am 05:35 Clear 22 -5.7 20 -6.6 93 93 WNW 10 17 30.36 1028 10 16 0.00 0.00
5:55 am 05:55 Clear 21 -6.1 19 -7 93 93 WNW 10 17 30.36 1028 10 16 0.00 0.00
6:15 am 06:15 Clear 20 -6.5 19 -7.3 94 94 WNW 9 15 30.36 1028 10 16 0.00 0.00
6:35 am 06:35 Clear 20 -6.6 19 -7.5 93 93 WNW 9 15 30.37 1028 10 16 0.00 0.00
6:55 am 06:55 Clear 20 -6.7 19 -7.5 94 94 WNW 10 17 30.37 1028 10 16 0.00 0.00
7:15 am 07:15 Sunny 20 -6.8 18 -7.6 94 94 WNW 8 13 30.37 1028 10 16 0.00 0.00
7:35 am 07:35 Sunny 20 -6.6 19 -7.5 93 93 WNW 8 13 30.37 1028 10 16 0.00 0.00
7:55 am 07:55 Sunny 21 -6.2 19 -7.2 93 93 WNW 10 17 30.37 1028 10 16 0.00 0.00
8:15 am 08:15 Sunny 22 -5.5 20 -6.6 92 92 WNW 10 17 30.36 1028 10 16 0.00 0.00
8:35 am 08:35 Sunny 23 -5 21 -6.1 92 92 WNW 9 15 30.36 1028 10 16 0.00 0.00
8:55 am 08:55 Sunny 24 -4.6 21 -6 90 90 NW 9 15 30.35 1028 10 16 0.00 0.00
9:15 am 09:15 Sunny 25 -3.9 22 -5.3 90 90 NW 8 13 30.34 1027 10 16 0.00 0.00
9:35 am 09:35 Sunny 27 -3 24 -4.6 89 89 NW 9 15 30.33 1027 10 16 0.00 0.00
9:55 am 09:55 Sunny 28 -2.5 24 -4.2 88 88 NNW 8 13 30.32 1027 10 16 0.00 0.00
10:15 am 10:15 Sunny 29 -1.9 25 -3.9 86 86 NW 9 15 30.32 1027 10 16 0.00 0.00
10:35 am 10:35 Sunny 31 -0.8 26 -3.1 85 85 WNW 8 13 30.31 1026 10 16 0.00 0.00
10:55 am 10:55 Sunny 32 0 28 -2.5 83 83 WNW 6 9 30.30 1026 10 16 0.00 0.00
11:15 am 11:15 Sunny 33 0.8 29 -1.5 85 85 WNW 5 7 30.29 1026 10 16 0.00 0.00
11:35 am 11:35 Sunny 35 1.8 31 -0.7 84 84 NW 5 7 30.27 1025 10 16 0.00 0.00
11:55 am 11:55 Sunny 38 3.2 31 -0.4 78 78 W 8 13 30.26 1025 10 16 0.00 0.00
12:15 pm 12:15 Sunny 40 4.4 30 -0.9 69 69 W 10 17 30.24 1024 10 16 0.00 0.00
12:35 pm 12:35 Sunny 42 5.6 30 -1.1 62 62 W 14 22 30.22 1023 10 16 0.00 0.00
12:55 pm 12:55 Sunny 44 6.4 31 -0.8 60 60 W 14 22 30.20 1023 10 16 0.00 0.00
1:15 pm 13:15 Sunny 44 6.6 28 -2 55 55 W 15 24 30.18 1022 10 16 0.00 0.00
1:35 pm 13:35 Sunny 45 7 28 -2.4 52 52 W 17 28 30.17 1022 10 16 0.00 0.00
1:55 pm 13:55 Sunny 45 7.3 29 -1.5 54 54 W 16 26 30.16 1021 10 16 0.00 0.00
2:15 pm 14:15 Sunny 46 7.5 28 -2.4 50 50 WSW 13 20 30.14 1021 10 16 0.00 0.00
2:35 pm 14:35 Sunny 47 8.3 28 -2.1 48 48 W 18 30 30.13 1020 10 16 0.00 0.00
2:55 pm 14:55 Sunny 48 8.9 28 -2 47 47 W 15 24 30.12 1020 10 16 0.00 0.00
3:15 pm 15:15 Sunny 49 9.2 28 -2.4 44 44 WSW 14 22 30.11 1020 10 16 0.00 0.00
3:35 pm 15:35 Sunny 49 9.5 28 -2.4 44 44 W 13 20 30.09 1019 10 16 0.00 0.00
3:55 pm 15:55 Sunny 50 10.2 29 -1.9 43 43 W 17 28 30.07 1018 10 16 0.00 0.00
4:15 pm 16:15 Sunny 50 9.8 26 -3.2 40 40 W 15 24 30.06 1018 10 16 0.00 0.00
4:35 pm 16:35 Sunny 50 10.2 25 -3.9 37 37 WSW 15 24 30.05 1018 10 16 0.00 0.00
4:55 pm 16:55 Sunny 51 10.5 25 -4.1 36 36 WSW 14 22 30.04 1017 10 16 0.00 0.00
5:15 pm 17:15 Sunny 52 10.9 24 -4.6 34 34 W 15 24 30.03 1017 10 16 0.00 0.00
5:35 pm 17:35 Sunny 52 10.9 25 -3.8 36 36 WSW 15 24 30.02 1017 10 16 0.00 0.00
5:55 pm 17:55 Sunny 52 11 26 -3.5 36 36 W 17 28 30.02 1017 10 16 0.00 0.00
6:15 pm 18:15 Sunny 51 10.7 26 -3.5 37 37 W 14 22 30.01 1016 10 16 0.00 0.00
6:35 pm 18:35 Sunny 51 10.6 26 -3.4 38 38 W 14 22 30.02 1016 10 16 0.00 0.00
6:55 pm 18:55 Sunny 51 10.3 26 -3.5 38 38 W 15 24 30.02 1017 10 16 0.00 0.00
7:15 pm 19:15 Sunny 49 9.7 26 -3.5 40 40 W 10 17 30.00 1016 10 16 0.00 0.00
7:35 pm 19:35 Sunny 49 9.2 26 -3.2 42 42 W 8 13 30.01 1016 10 16 0.00 0.00
7:55 pm 19:55 Sunny 47 8.1 28 -2.3 48 48 W 8 13 30.01 1016 10 16 0.00 0.00
8:15 pm 20:15 Sunny 44 6.6 28 -2.5 53 53 W 8 13 30.02 1017 10 16 0.00 0.00
8:35 pm 20:35 Clear 40 4.3 28 -2.2 63 63 W 8 13 30.04 1017 10 16 0.00 0.00
8:55 pm 20:55 Clear 40 4.6 26 -3.1 58 58 WSW 5 7 30.04 1017 10 16 0.00 0.00
9:15 pm 21:15 Clear 37 2.7 27 -3 66 66 WSW 6 9 30.06 1018 10 16 0.00 0.00
9:35 pm 21:35 Clear 36 2 26 -3.2 69 69 SSW 5 7 30.08 1019 10 16 0.00 0.00
9:55 pm 21:55 Clear 35 1.4 26 -3.4 71 71 SSW 5 7 30.09 1019 10 16 0.00 0.00
10:15 pm 22:15 Clear 34 1.1 26 -3.4 72 72 SSW 6 9 30.10 1019 10 16 0.00 0.00
10:35 pm 22:35 Clear 34 1 26 -3.4 73 73 S 7 11 30.09 1019 10 16 0.00 0.00
10:55 pm 22:55 Clear 34 1 26 -3.5 72 72 S 6 9 30.08 1019 10 16 0.00 0.00
11:15 pm 23:15 Clear 33 0.7 27 -2.9 77 77 S 6 9 30.08 1019 10 16 0.00 0.00
11:35 pm 23:35 Clear 32 -0.1 26 -3.1 80 80 S 6 9 30.08 1019 10 16 0.00 0.00
11:55 pm 23:55 Clear 32 0.2 26 -3.2 78 78 S 7 11 30.07 1018 10 16 0.00 0.00

Powered by AerisWeather